Regional Weather Roundup
Issued by NWS

Home | Current Version | Previous Version | Text Only | Print | Product List | Glossary On
Versions: 1 2 3 4 5 6 7 8 9 10 11 12 13 14 15 16 17 18 19 20 21 22 23 24 25 26 27
000
ASUS45 KTFX 171710
RWRMT
MONTANA REGIONAL WEATHER ROUNDUP
NATIONAL WEATHER SERVICE GREAT FALLS MT
1100 AM MDT TUE OCT 17 2017

NOTE: "FAIR" INDICATES FEW OR NO CLOUDS BELOW 12000 FEET WITH NO
SIGNIFICANT WEATHER AND/OR OBSTRUCTIONS TO VISIBILITY.

MTZ001>007-043-171800-
WEST OF THE DIVIDE

CITY           SKY/WX    TMP DP  RH WIND       PRES   REMARKS
KALISPELL      SUNNY     53  36  52 SW6       29.88F
MISSOULA       SUNNY     43  32  65 CALM      30.01F
BUTTE          CLOUDY    51  27  39 NW6       30.11F
MULLAN PASS    SUNNY     48  24  39 S8G20     30.00S
ANACONDA         N/A     57  19  23 S16G24    30.06F
DEER LODGE       N/A     57  21  24 S12G24    30.05S
EUREKA           N/A     61  27  27 MISG        N/A
HAMILTON         N/A     57  27  30 S15       30.02F
LIBBY            N/A     43  36  75 CALM      29.86F
THOMPSON FALLS   N/A     46  38  74 E1        29.98F
$$

MTZ008-052>055-171800-
SOUTHWEST MONTANA

CITY           SKY/WX    TMP DP  RH WIND       PRES   REMARKS
BOZEMAN        SUNNY     53  31  42 CALM      30.07F
DILLON         SUNNY     52  23  32 S8        30.13F
W YELLOWSTONE  SUNNY     37  23  56 NE3       30.29F
ENNIS          SUNNY     59  19  21 S26G35    30.18F
THREE FORKS      N/A     53  26  35 CALM      30.05F
$$

MTZ009-010-012-014-046-048-049-054-171800-
EAST SLOPES AND CENTRAL MONTANA

CITY           SKY/WX    TMP DP  RH WIND       PRES   REMARKS
CUT BANK       MOSUNNY   63  20  19 SW25G38   29.76F
GREAT FALLS    SUNNY     65  21  18 SW26G39   29.86F
MALMSTROM AFB  SUNNY     64  23  20 SW26G36   29.86F
HELENA           N/A     53  30  41 CALM      29.98F
$$

MTZ011-013-016-021-045-047-050-051-171800-
NORTH CENTRAL MONTANA

CITY           SKY/WX    TMP DP  RH WIND       PRES   REMARKS
HAVRE          SUNNY     68  24  19 SW36G44   29.75F
LEWISTOWN      SUNNY     67  19  16 SW21G29   29.92F
N BAR RANCH      N/A     68  14  12 W13G20    29.94F
CHINOOK          N/A     70  21  16 SW29G40   29.72F
$$

MTZ017>020-022>027-061-062-171800-
NORTHEAST MONTANA

CITY           SKY/WX    TMP DP  RH WIND       PRES   REMARKS
GLASGOW        SUNNY     68  27  21 SW15      29.78F
JORDAN           N/A     69  24  18 SW14      29.85F
SIDNEY         SUNNY     62  34  35 S14       29.84F
WOLF POINT     SUNNY     67  28  23 SW14      29.80F
MALTA          SUNNY     70  23  17 SW16      29.75F
PLENTYWOOD       N/A     64  27  24 W18G25    29.75F
POPLAR           N/A     64  30  27 SW13G18   29.81F
$$

MTZ028>42-056>058-171800-
SOUTHCENTRAL AND SOUTHEAST MONTANA

CITY           SKY/WX    TMP DP  RH WIND       PRES   REMARKS
BAKER          SUNNY     66  27  23 W18G24    29.95F
BILLINGS       MOSUNNY   63  26  24 SW17      29.99F
LIVINGSTON     SUNNY     60  22  23 SW32G47   30.02F
MILES CITY     SUNNY     63  30  28 SW13      29.93F
BIG TIMBER     SUNNY     63  19  19 W17       30.03F
EKALAKA          N/A     66  22  19 W7        29.97F
HARLOWTON        N/A     64  20  18 MISG      29.97F
$$

REGIONAL REPORTS...DAKOTAS

CITY           SKY/WX    TMP DP  RH WIND       PRES   REMARKS
WILLISTON      SUNNY     61  34  36 S7        29.81F
MINOT          SUNNY     67  31  26 SW16      29.78F
DICKINSON      SUNNY     66  29  24 W18       29.88F
BEACH            N/A     64  25  22 W20       29.93F
CROSBY           N/A     63  28  27 SW23      29.75F
TIOGA            N/A     64  27  24 W24       29.80F
WATFORD CITY     N/A     66  30  26 SW15      29.82F
BISMARCK       SUNNY     68  32  26 SW12      29.89F
GRAND FORKS    MOSUNNY   66  39  37 S16       29.82F
FARGO          SUNNY     61  42  49 S14       29.90F
BUFFALO SD       N/A     72  23  16 W18       29.92F
RAPID CITY     SUNNY     70  29  21 S5        30.04F
$$

REGIONAL REPORTS...WYOMING/IDAHO/WASHINGTON

CITY           SKY/WX    TMP DP  RH WIND       PRES   REMARKS
GILLETTE       SUNNY     66  27  23 CALM      30.07F
SHERIDAN       SUNNY     69  31  24 E5        30.02F
BUFFALO WY     SUNNY     65  15  14 SE7       30.08F
CODY           SUNNY     63  17  17 NW9G17    30.12F
IDAHO FALLS    CLOUDY    40  31  70 N9        30.27F
SALMON         SUNNY     39  29  67 CALM      30.21F
BOISE          MOSUNNY   50  32  50 NE3       30.18S
SPOKANE        MOSUNNY   55  33  43 S16G24    29.90F
$$

REGIONAL REPORTS...ALBERTA

CITY           SKY/WX    TMP DP  RH WIND       PRES   REMARKS
EDMONTON       PTSUNNY   54  37  54 S9        29.22F
CALGARY        PTSUNNY   64  34  32 S23G33    29.35F
LETHBRIDGE     MOSUNNY   66  32  28 S20G26    29.61F
MEDICINE HAT   PTSUNNY   64  27  24 SW32G45   29.53S
$$

REGIONAL REPORTS...SASKATCHEWAN

CITY           SKY/WX    TMP DP  RH WIND       PRES   REMARKS
SWIFT CURRENT  SUNNY     63  28  27 SW29G35   29.59F
REGINA         PTSUNNY   59  32  36 SW15      29.64F
SASKATOON      PTSUNNY   54  37  54 S8        29.51F
$$




USA.gov is the U.S. government's official web portal to all federal, state and local government web resources and services.